Weather History for PASY - December, 2012

Change the Weather History Date:

Friday, December 21, 2012

  Actual Average Record
Temperature  
Mean Temperature 32 °F -  
Max Temperature 36 °F 34 °F 44 °F (1959)
Min Temperature 28 °F 30 °F 19 °F (2011)
Degree Days  
Heating Degree Days 33    
Moisture  
Dew Point 26 °F    
Average Humidity 78    
Maximum Humidity 93    
Minimum Humidity 53    
Precipitation  
Precipitation 0.00 in - - ()
Sea Level Pressure  
Sea Level Pressure 29.62 in    
Wind  
Wind Speed 28 mph (SSW)    
Max Wind Speed 47 mph    
Max Gust Speed 56 mph    
Visibility 6 miles    
Events Snow    
Averages and records for this station are not official NWS values.
T = Trace of Precipitation, MM = Missing Value Source: NWS Daily Summary

Daily Weather History Graph

Daily Weather History Graph

Search for Another Location

Airport or City:

Trip Planner

Search our weather history database for the weather conditions in past years. The results will help you decide how hot, cold, wet, or windy it might be!

Date:

Astronomy

Dec. 20, 2012 Rise Set
Actual Time 10:33 AM HST 6:10 PM HST
Civil Twilight 9:51 AM HST 6:52 PM HST
Nautical Twilight 9:06 AM HST 7:36 PM HST
Astronomical Twilight 8:24 AM HST 8:18 PM HST
Moon 2:34 PM HST (12/21) 4:03 AM HST (12/21)
Length of Visible Light 9h 00m
Length of Day
7h 36m
Waxing Gibbous, 66% of the Moon is Illuminated
Dec 21
Waxing Gibbous
Dec 28
Full
Jan 4
Last Quarter
Jan 11
New
Jan 18
First Quarter

Hourly Weather History & Observations

Time (HST) Temp. Windchill Dew Point Humidity Pressure Visibility Wind Dir Wind Speed Gust Speed Precip Events Conditions
12:53 AM 30.2 °F 17.1 °F 28.4 °F 93% 29.46 in - SW 21.9 mph 32.2 mph N/A Snow Light Snow
12:56 AM 32.0 °F 19.5 °F 28.0 °F 85% 29.47 in 4.0 mi SW 21.9 mph 27.6 mph N/A Snow Light Snow
1:14 AM 33.8 °F 19.2 °F 23.0 °F 65% 29.46 in 10.0 mi SW 34.5 mph 41.4 mph N/A   Mostly Cloudy
1:56 AM 32.0 °F 15.4 °F 24.1 °F 73% 29.49 in 5.0 mi SW 42.6 mph 49.5 mph N/A Snow Light Snow
2:02 AM 30.2 °F 16.8 °F 24.8 °F 80% 29.49 in - SW 23.0 mph 49.5 mph N/A Snow Light Snow
2:08 AM 30.2 °F 15.2 °F 24.8 °F 80% 29.49 in 4.0 mi WSW 29.9 mph 33.4 mph N/A Snow Light Snow
2:56 AM 33.1 °F 20.1 °F 25.0 °F 72% 29.52 in 10.0 mi SW 25.3 mph 29.9 mph N/A   Scattered Clouds
3:26 AM 30.2 °F 12.2 °F 24.8 °F 80% 29.53 in 2.5 mi SW 47.2 mph 56.4 mph N/A Snow Light Snow
3:29 AM 30.2 °F 13.7 °F 24.8 °F 80% 29.53 in 1.5 mi SW 38.0 mph 56.4 mph N/A Snow Light Snow
3:32 AM 28.4 °F 12.0 °F 26.6 °F 93% 29.53 in 1.0 mi SW 33.4 mph 56.4 mph N/A Snow Light Snow
3:37 AM 28.4 °F 15.4 °F 26.6 °F 93% 29.53 in 1.2 mi SSW 19.6 mph 42.6 mph N/A Snow Light Snow
3:41 AM 30.2 °F 16.2 °F 28.4 °F 93% 29.54 in 1.8 mi SSW 25.3 mph 31.1 mph N/A Snow Light Snow
3:46 AM 30.2 °F 16.8 °F 28.4 °F 93% 29.54 in - SW 23.0 mph 33.4 mph N/A Snow Light Snow
3:56 AM 30.9 °F 16.2 °F 28.0 °F 89% 29.55 in 8.0 mi SW 29.9 mph 33.4 mph N/A Snow Light Snow
4:01 AM 32.0 °F 17.9 °F 24.8 °F 75% 29.54 in 6.2 mi SW 28.8 mph 34.5 mph N/A Snow Light Snow
4:56 AM 30.0 °F 16.0 °F 27.0 °F 88% 29.56 in 8.0 mi SW 25.3 mph 42.6 mph N/A Snow Light Snow
5:56 AM 33.1 °F 19.3 °F 23.0 °F 66% 29.56 in 9.0 mi SSW 28.8 mph 36.8 mph N/A   Mostly Cloudy
6:56 AM 30.9 °F 17.2 °F 26.1 °F 82% 29.60 in 5.0 mi SSW 25.3 mph 41.4 mph N/A Snow Light Snow
7:56 AM 33.1 °F 19.6 °F 23.0 °F 66% 29.61 in 10.0 mi SSW 27.6 mph 33.4 mph N/A   Partly Cloudy
8:56 AM 34.0 °F 21.0 °F 24.1 °F 67% 29.63 in 10.0 mi South 26.5 mph 33.4 mph N/A Snow Light Snow
9:23 AM 32.0 °F 18.4 °F 28.4 °F 87% 29.65 in 2.5 mi South 26.5 mph 40.3 mph N/A Snow Light Snow
9:39 AM 32.0 °F 17.0 °F 26.6 °F 80% 29.64 in 6.2 mi South 33.4 mph - N/A Snow Light Snow
9:56 AM 32.0 °F 17.2 °F 27.0 °F 82% 29.65 in 10.0 mi South 32.2 mph 38.0 mph N/A   Overcast
10:56 AM 34.0 °F 21.8 °F 27.0 °F 75% 29.67 in 10.0 mi South 23.0 mph 33.4 mph N/A   Clear
11:56 AM 30.9 °F 15.5 °F 27.0 °F 85% 29.72 in 1.8 mi SSW 33.4 mph 41.4 mph N/A Snow Light Snow
11:58 AM 30.2 °F 15.9 °F 26.6 °F 86% 29.71 in 1.0 mi SSW 26.5 mph 41.4 mph N/A Snow Light Snow
12:07 PM 32.0 °F 16.5 °F 28.4 °F 87% 29.71 in 1.8 mi SSW 35.7 mph 40.3 mph N/A Snow Light Snow
12:09 PM 32.0 °F 16.3 °F 28.4 °F 87% 29.71 in - SSW 36.8 mph 44.9 mph N/A Snow Light Snow
12:15 PM 30.2 °F 13.9 °F 26.6 °F 86% 29.71 in 1.8 mi SSW 36.8 mph 49.5 mph N/A Snow Light Snow
12:19 PM 30.2 °F 15.7 °F 28.4 °F 93% 29.70 in 1.5 mi SSW 27.6 mph 49.5 mph N/A Snow Light Snow
12:27 PM 32.0 °F 18.4 °F 28.4 °F 87% 29.70 in 6.2 mi SSW 26.5 mph 29.9 mph N/A Snow Light Snow
12:56 PM 34.0 °F 20.8 °F 28.0 °F 79% 29.72 in 10.0 mi South 27.6 mph - N/A   Partly Cloudy
1:56 PM 36.0 °F 23.9 °F 25.0 °F 64% 29.72 in 10.0 mi SSW 25.3 mph 31.1 mph N/A   Mostly Cloudy
2:56 PM 34.0 °F 21.8 °F 26.1 °F 73% 29.75 in 6.0 mi SSW 23.0 mph 33.4 mph N/A Snow Light Snow
3:56 PM 36.0 °F 24.2 °F 26.1 °F 67% 29.76 in 10.0 mi SSW 24.2 mph 27.6 mph N/A   Partly Cloudy
4:56 PM 36.0 °F 24.4 °F 25.0 °F 64% 29.78 in 10.0 mi SSW 23.0 mph - N/A   Mostly Cloudy
5:56 PM 36.0 °F 26.3 °F 24.1 °F 62% 29.81 in 10.0 mi SSW 16.1 mph - N/A   Clear
6:56 PM 36.0 °F 25.3 °F 27.0 °F 70% 29.83 in 10.0 mi South 19.6 mph - N/A   Clear